Lapse_Rate
8.1 8.3 8.0 8.3 8.7 9.5 8.7 8.4 6.5 8.4 8.8 8.9 9.5 8.1 7.5 7.1 6.5 7.8 7.1 5.5 5.3 5.2 5.2 5.1 4.9 4.7 5.3 5.2 5.2 5.1 5.1 5.1 5.0 5.0 5.1 5.2 4.6 5.5 5.0 5.9 6.3 6.5 6.9 6.7
8.2 8.2 8.1 8.4 8.6 9.6 8.6 7.8 7.7 7.3 8.8 9.3 9.4 8.9 7.5 7.5 8.3 8.2 7.9 6.7 5.5 5.6 5.4 5.2 4.7 4.5 5.0 5.3 5.1 5.2 5.0 4.9 5.0 5.0 5.1 5.2 4.8 5.0 5.9 6.1 6.5 6.8 7.0 7.1
8.2 8.1 8.4 8.6 8.6 9.6 9.7 9.0 8.5 8.8 8.6 9.4 9.2 8.9 8.0 7.2 7.0 6.6 7.2 7.0 5.8 5.4 5.5 5.1 5.1 5.0 4.4 5.2 5.2 5.2 5.0 5.0 4.9 5.0 5.2 5.5 5.7 5.7 6.0 6.3 6.7 7.0 7.4 7.4
8.3 8.5 8.8 8.8 8.8 9.6 9.6 9.4 9.2 8.4 9.4 9.6 9.4 9.5 9.1 8.3 7.1 6.7 6.2 5.9 6.2 5.5 5.2 5.2 5.5 5.3 4.8 5.0 5.2 5.1 5.0 5.0 5.0 5.2 5.4 5.5 5.7 5.8 6.1 6.7 7.2 7.5 7.6 7.8
8.2 8.6 9.0 8.8 9.4 9.4 9.6 9.6 9.7 9.7 9.7 9.7 9.6 9.1 9.4 9.0 7.8 7.1 6.7 6.2 5.7 5.4 5.2 5.1 5.8 5.8 4.7 4.3 5.3 5.1 5.0 5.1 5.1 5.4 5.6 5.8 6.0 6.2 6.4 6.8 7.3 7.7 7.8 7.8
8.1 8.7 8.9 8.9 9.2 9.7 9.3 9.6 9.7 9.7 9.6 9.7 9.6 9.6 9.6 9.4 8.6 7.7 7.1 6.6 6.0 5.4 5.2 5.1 5.5 5.5 4.7 4.4 5.1 5.1 5.1 5.2 5.4 5.6 5.8 5.9 6.3 6.4 6.8 7.2 7.4 7.6 8.0 8.2
8.3 8.4 8.5 9.0 9.6 9.7 9.6 9.6 9.7 9.7 9.7 9.7 9.7 9.7 9.2 9.1 8.2 7.2 7.7 7.0 6.5 5.9 5.5 5.3 5.0 5.2 4.9 4.7 5.2 5.3 5.3 5.4 5.6 5.8 6.0 6.2 6.4 6.5 6.9 7.2 7.4 7.6 7.9 8.1
8.2 8.5 8.5 8.9 9.3 9.6 9.7 9.7 9.8 9.3 9.5 9.8 9.3 9.7 9.2 8.8 8.4 7.7 7.8 7.6 6.8 6.3 5.8 5.5 5.0 4.9 5.2 4.9 5.4 5.6 5.6 5.6 5.8 6.1 6.3 6.5 6.7 6.8 7.1 7.2 7.5 7.8 7.8 8.0
8.8 8.3 9.1 8.7 9.3 9.7 9.7 9.7 9.6 9.6 9.8 9.5 7.9 9.0 8.4 8.2 8.9 9.0 8.0 7.6 7.0 6.6 6.2 5.7 5.2 4.9 5.4 5.6 5.8 5.8 5.9 5.9 6.1 6.3 6.5 6.8 6.9 7.1 7.2 7.3 7.6 7.9 7.9 7.9
8.4 8.6 9.0 9.5 9.2 9.6 9.7 9.7 9.7 9.6 9.3 9.3 7.4 7.7 8.2 8.4 9.0 9.5 9.6 7.5 7.4 6.7 6.4 5.8 5.3 5.2 5.7 5.9 5.9 5.9 6.0 6.1 6.3 6.5 6.7 7.0 7.1 7.3 7.3 7.5 7.5 7.9 8.1 8.1
8.4 8.4 9.0 9.7 9.6 9.3 9.6 9.6 9.7 9.6 9.6 10.1 9.7 8.6 8.8 9.0 8.4 9.6 9.6 8.0 7.7 7.2 6.4 6.0 5.5 5.6 6.0 6.0 5.9 6.0 6.1 6.2 6.5 6.8 6.8 7.1 7.3 7.4 7.5 7.6 7.5 8.0 8.3 8.3
8.8 9.0 8.5 9.2 9.7 9.3 9.6 9.1 9.4 9.8 9.6 9.6 9.6 9.3 8.6 8.5 9.0 9.6 9.0 8.5 7.7 7.3 6.4 6.1 5.6 5.3 6.1 6.2 6.1 6.2 6.2 6.5 6.7 6.8 6.9 7.2 7.3 7.5 7.7 7.8 7.7 8.0 8.5 8.4
7.3 7.8 8.6 9.3 9.7 9.7 9.3 9.5 9.1 9.6 9.7 9.6 9.7 9.6 8.6 8.6 8.4 9.7 9.2 8.2 7.7 6.9 6.4 6.1 5.7 5.4 6.3 6.4 6.3 6.4 6.4 6.6 6.8 6.8 7.0 7.2 7.4 7.6 7.8 7.9 7.8 8.0 8.5 8.3
6.3 6.9 7.8 9.3 9.4 9.6 9.6 9.5 9.2 9.6 9.8 9.7 9.6 9.6 9.1 8.7 8.8 9.5 8.6 7.8 7.3 6.6 6.3 6.1 6.2 6.2 6.8 6.7 6.6 6.5 6.6 6.7 6.9 6.9 7.0 7.3 7.5 7.6 7.7 7.7 7.8 8.0 8.4 8.4
6.8 6.6 7.6 7.6 8.9 9.5 9.7 9.5 9.4 9.7 9.6 9.6 9.6 9.7 8.9 8.9 7.4 8.6 8.6 7.7 7.1 6.6 6.2 6.3 7.0 7.1 7.2 6.9 6.9 6.8 6.7 6.8 7.0 7.1 7.2 7.4 7.6 7.7 7.6 7.8 8.0 8.0 8.6 8.5
7.3 7.1 7.7 7.5 8.2 8.8 9.4 9.7 9.5 9.6 9.7 9.6 9.5 9.6 9.1 8.9 9.4 8.2 8.9 7.8 7.1 6.9 6.6 6.5 7.1 7.3 7.4 7.3 7.3 7.1 7.1 7.2 7.2 7.3 7.4 7.5 7.7 7.7 7.8 8.0 8.1 8.3 9.1 8.4
6.2 6.3 7.3 7.4 7.8 8.4 9.0 9.6 9.7 9.2 9.3 9.6 9.4 9.3 8.6 8.5 8.0 8.6 8.7 7.9 7.5 7.4 7.1 7.5 7.7 7.8 7.7 7.8 7.6 7.4 7.3 7.3 7.4 7.5 7.5 7.6 7.8 7.8 7.8 8.1 8.4 8.7 8.8 8.3
5.4 5.3 6.4 7.1 7.7 8.2 8.8 9.4 9.7 9.7 9.2 9.6 9.4 9.6 9.3 9.0 8.3 8.5 8.9 8.4 7.7 8.0 7.7 7.8 7.8 7.8 7.7 7.6 7.5 7.5 7.4 7.5 7.5 7.6 7.7 7.9 7.9 7.8 8.1 8.3 8.4 8.6 8.7 8.6
5.7 5.5 6.6 7.2 7.7 8.2 8.6 9.4 9.6 9.7 9.6 9.4 9.6 9.4 9.5 8.4 8.6 8.7 9.0 8.8 8.4 8.8 8.5 8.2 8.1 7.8 7.7 7.8 7.7 7.6 7.5 7.5 7.5 7.7 7.9 8.0 8.0 8.1 8.3 8.5 8.5 8.6 8.7 8.7
6.5 6.4 6.2 7.6 8.1 8.6 8.6 9.2 9.7 9.6 9.6 9.7 9.6 9.6 10.0 9.8 8.8 7.8 8.7 9.2 9.0 9.0 8.9 8.5 8.3 8.1 8.0 7.9 7.9 7.9 7.9 7.7 7.9 8.1 8.5 8.3 8.3 8.4 8.4 8.5 8.6 8.7 8.8 8.7
7.2 7.2 6.8 7.2 7.4 8.7 9.1 9.3 9.7 9.6 9.3 9.1 9.2 9.4 9.5 9.6 8.9 8.7 8.6 9.4 9.1 8.8 8.5 8.5 8.6 8.5 8.6 8.6 8.4 8.3 8.4 8.5 8.7 8.7 8.6 8.6 8.6 8.6 8.5 8.5 8.6 8.8 9.0 8.8
7.6 7.6 7.3 7.4 8.0 8.7 8.5 8.8 8.9 7.7 7.9 8.4 8.6 8.6 9.1 9.7 8.0 8.1 8.0 8.8 9.4 9.2 8.9 8.6 8.5 8.5 8.8 8.7 8.5 8.6 8.4 8.8 9.0 8.7 8.7 8.7 8.7 8.7 8.6 8.6 8.6 8.8 9.0 8.9
8.9 7.9 7.8 7.7 7.9 8.6 7.8 7.9 7.3 7.3 7.9 8.2 8.6 8.2 8.3 8.7 8.6 8.9 8.6 8.2 8.7 9.0 8.8 8.9 8.8 8.7 8.6 8.8 8.9 8.8 8.8 8.9 8.9 8.7 8.6 8.8 8.8 8.8 8.8 8.6 8.7 8.8 9.0 9.0
9.3 9.1 8.4 8.7 8.2 8.5 7.8 7.3 7.6 7.7 7.8 7.7 7.3 7.9 7.7 7.6 7.9 8.0 7.7 8.5 8.6 8.6 8.5 8.2 8.1 8.6 8.9 8.8 8.8 8.9 8.9 8.9 8.9 8.9 8.8 8.8 8.9 8.9 8.9 8.8 8.8 8.8 8.9 8.9
6.9 8.2 7.9 8.8 8.1 7.6 7.5 7.0 7.2 7.6 7.4 6.5 7.5 7.7 7.9 7.5 7.3 7.7 8.3 8.2 8.5 8.5 8.4 8.2 8.2 8.4 8.8 9.0 8.9 8.8 8.8 8.9 9.0 9.0 9.1 9.1 9.0 9.0 9.0 8.9 8.9 8.9 8.9 9.0
6.1 6.0 6.7 7.1 6.3 6.7 6.2 6.7 6.9 7.6 6.8 7.2 7.8 7.3 7.2 7.0 7.5 7.4 7.6 8.0 8.2 8.6 8.9 8.8 8.8 8.6 8.7 8.9 9.0 9.0 8.9 8.8 8.9 9.0 9.1 9.3 9.4 9.2 9.1 9.0 9.0 9.0 9.0 9.0
Wind_Speed
21 17 18 22 21 18 7 8 11 21 18 22 6 19 24 23 20 21 19 19 22 21 15 16 12 14 17 14 13 10 7 10 7 7 4 5 6 4 3 7 8 2 3 9
21 23 24 23 24 15 15 7 25 19 14 12 6 18 27 25 23 23 24 21 24 23 20 17 10 14 18 15 13 11 9 11 7 5 4 1 1 1 4 5 5 2 2 4
26 27 26 24 24 23 20 22 27 22 20 15 9 11 24 25 21 23 21 22 21 25 25 21 17 13 16 17 16 14 11 10 8 6 4 2 2 1 2 2 3 3 3 2
26 28 27 26 26 23 22 24 25 16 11 12 13 9 3 22 23 24 24 22 23 22 21 21 19 17 15 17 16 15 12 11 9 7 6 6 3 4 5 4 4 5 3 2
25 29 28 29 27 23 22 24 19 17 10 14 12 9 13 23 23 23 25 25 24 23 23 23 23 19 16 17 17 15 15 11 11 9 6 7 5 4 2 2 5 1 3 5
28 23 29 28 26 24 22 25 23 15 12 14 18 15 13 12 15 22 22 24 25 25 23 24 22 22 18 16 17 17 17 14 11 11 9 5 7 6 3 4 4 4 6 6
25 28 28 28 27 27 23 22 14 13 14 13 18 16 6 16 6 16 22 23 23 23 22 24 24 24 22 20 19 17 18 16 15 12 12 9 7 6 5 2 3 5 3 0
21 21 28 21 31 25 26 23 15 17 15 16 7 10 1 21 18 32 28 23 23 23 21 22 25 22 22 19 20 18 19 17 16 15 12 10 10 6 5 4 4 4 3 2
19 27 21 29 25 27 25 21 23 25 21 6 8 6 9 21 20 17 21 24 23 22 22 22 22 21 21 20 19 19 19 18 17 16 13 12 11 10 8 8 7 5 4 4
26 22 27 24 28 26 29 18 20 17 23 11 3 4 13 11 16 17 16 25 23 22 21 21 20 20 18 18 17 18 17 19 18 17 14 12 12 12 10 7 6 7 4 6
26 25 25 25 27 26 19 21 20 22 17 14 12 6 10 16 20 17 14 24 24 23 20 20 19 21 20 20 18 19 18 19 17 16 14 13 13 12 11 10 8 6 5 4
15 22 21 30 26 29 26 26 26 16 19 15 8 5 1 17 24 14 13 24 23 22 20 19 19 21 20 20 19 19 18 17 17 15 13 14 14 13 13 12 11 9 8 7
12 9 16 25 22 25 29 27 26 25 17 19 13 3 5 21 24 11 16 22 21 21 20 20 18 19 20 18 18 19 17 17 17 15 14 15 14 14 14 13 12 10 8 7
8 11 15 17 21 18 25 28 27 26 17 16 18 13 20 7 17 8 18 20 20 18 18 19 17 17 18 17 17 16 17 16 16 16 16 15 16 15 14 12 12 10 7 8
9 15 17 23 26 26 25 24 30 27 23 22 19 18 14 17 19 18 17 17 19 17 18 19 18 16 17 16 15 15 16 17 17 17 17 17 15 14 13 12 10 10 10 10
13 14 16 24 24 28 24 29 29 28 27 25 23 8 9 11 17 11 12 17 19 18 18 19 18 18 18 18 16 17 16 16 16 17 18 15 15 13 13 11 12 11 13 16
13 11 12 20 19 24 25 22 27 24 26 24 23 15 15 12 13 25 15 17 19 18 19 19 20 19 18 19 17 18 16 16 15 16 16 15 14 15 14 13 12 14 14 10
14 14 12 15 17 22 15 21 19 26 25 24 21 13 20 13 28 16 16 17 18 19 19 18 16 17 17 17 17 15 16 14 16 15 16 16 15 16 15 14 14 14 13 12
16 14 9 13 15 17 24 22 17 17 22 23 17 19 26 31 11 16 15 18 17 18 16 15 16 16 16 16 16 15 15 16 16 17 17 17 17 16 16 16 16 14 13 12
19 16 12 12 17 23 16 21 13 10 11 14 16 14 17 10 10 4 38 18 19 17 15 15 17 18 17 16 15 16 16 17 19 19 19 18 17 17 18 17 17 14 13 12
17 14 15 13 10 12 13 18 16 13 3 16 12 12 17 7 4 14 17 9 17 16 15 16 18 17 20 18 17 18 18 19 21 18 16 17 18 18 18 16 15 14 13 13
17 14 13 15 12 15 18 8 3 10 15 16 17 17 16 12 19 3 16 11 6 13 12 10 15 16 15 19 19 19 20 23 16 16 16 16 16 14 13 16 14 14 15 14
19 16 13 14 14 12 17 14 13 14 13 15 14 14 14 13 12 10 6 13 10 6 3 8 10 8 8 17 19 19 22 18 17 15 16 15 16 15 14 16 15 13 14 11
3 11 17 12 18 21 15 15 14 13 14 13 15 15 12 10 11 10 8 11 11 11 8 5 4 8 8 8 14 19 15 12 14 15 15 14 16 16 15 13 13 13 12 12
8 12 8 16 13 9 14 14 11 11 12 15 15 14 13 14 13 10 10 8 9 9 8 8 6 6 9 11 11 10 9 12 14 14 14 15 14 16 14 13 13 13 14 14
6 8 5 4 12 10 11 12 12 11 13 14 15 16 16 14 11 11 11 10 9 11 9 9 9 7 8 10 12 11 12 13 15 14 14 14 14 14 11 12 6 10 11 16
Wind_Direction
241 230 239 247 248 256 356 15 207 292 264 211 210 172 186 179 177 169 183 188 172 181 191 179 183 171 161 173 154 186 167 135 156 161 199 219 188 221 190 108 114 203 33 14
237 235 236 247 253 224 155 76 272 237 293 198 210 179 171 180 182 174 176 193 177 179 184 180 194 179 170 160 168 181 170 156 175 191 216 186 285 186 55 94 114 111 65 346
227 231 237 236 248 249 247 168 242 268 182 252 230 244 153 180 185 171 182 184 199 183 171 178 185 184 185 166 167 173 176 171 191 203 207 88 352 98 82 137 178 175 157 275
236 232 240 232 235 244 249 209 228 229 258 253 193 248 295 179 183 180 177 185 190 194 182 173 182 183 208 168 166 169 183 175 184 220 191 175 211 203 212 198 111 162 190 249
230 234 231 239 236 231 250 256 265 252 250 273 222 227 209 222 182 183 184 179 189 190 192 178 185 184 205 179 172 172 177 183 184 206 236 174 228 225 186 128 130 192 194 219
243 246 229 236 239 233 239 252 258 254 274 249 252 249 245 184 188 178 190 182 180 184 195 173 185 180 198 188 175 175 176 183 193 184 214 244 193 255 299 194 161 220 209 210
241 233 248 226 233 236 220 238 242 232 237 244 249 249 51 143 38 303 185 186 182 177 186 175 183 175 188 192 183 177 174 183 184 195 193 209 234 223 242 248 175 255 299 320
225 230 226 237 228 228 229 229 238 230 232 244 26 301 39 124 127 237 252 180 178 182 180 185 178 176 180 186 184 179 176 181 185 190 200 191 206 222 230 217 242 253 244 354
226 232 238 224 233 227 234 225 235 250 251 195 344 301 187 187 215 227 205 170 175 181 178 181 184 173 175 184 189 185 174 181 185 191 193 202 194 207 214 217 213 241 257 295
245 258 229 228 230 223 229 231 226 239 251 243 155 319 259 260 261 214 169 168 170 172 175 175 182 172 176 182 189 186 178 183 184 190 195 195 197 198 223 245 212 217 223 209
219 248 256 228 208 224 212 233 226 239 242 251 202 202 243 276 278 229 176 167 163 169 174 171 177 170 175 180 188 188 189 179 185 190 191 193 193 200 207 220 233 215 223 232
278 238 243 254 220 211 219 219 234 239 239 259 272 223 93 305 278 225 175 150 157 165 172 167 176 168 174 181 185 186 190 182 184 186 189 191 188 197 202 211 217 214 213 207
345 252 237 245 249 205 213 222 225 238 231 242 250 180 141 263 280 163 165 148 153 163 169 164 172 169 174 180 183 184 188 184 180 182 191 189 191 196 203 204 212 212 202 201
314 267 266 238 240 212 202 221 227 231 235 234 242 183 177 78 315 225 143 145 152 164 164 162 169 169 172 180 180 184 183 183 180 182 189 194 196 198 201 206 201 202 190 193
267 265 267 264 265 255 207 209 230 229 232 241 242 232 175 143 230 275 141 149 154 167 165 163 169 168 170 178 180 183 183 186 182 184 191 198 199 196 201 198 202 181 194 198
307 275 265 266 269 264 263 205 216 233 229 240 250 118 92 41 349 309 163 159 161 174 170 164 169 168 174 179 184 184 184 186 184 187 195 195 196 195 197 199 192 184 190 210
310 306 280 261 259 266 263 238 204 221 236 230 237 160 118 92 309 278 188 170 168 177 170 169 175 173 179 182 185 185 189 183 188 191 194 195 193 196 197 197 188 194 193 192
289 292 283 269 266 254 260 253 232 208 226 238 233 191 148 138 229 239 166 175 173 179 176 173 179 177 183 185 188 188 189 187 194 195 195 194 195 195 193 194 198 195 195 186
259 268 279 249 245 253 253 247 252 228 210 233 238 235 168 179 85 328 280 169 178 181 178 177 179 178 181 188 185 190 193 196 197 202 199 196 196 193 191 195 198 197 192 184
235 245 258 271 240 236 241 247 251 271 259 218 241 253 259 140 122 276 264 183 177 177 179 174 177 181 178 187 182 187 198 199 206 204 205 196 195 192 193 193 196 196 186 181
215 226 222 237 256 250 242 279 251 243 321 6 6 348 251 133 169 254 274 217 174 180 185 182 179 183 190 183 184 190 195 206 211 208 201 199 196 194 193 192 192 186 171 170
197 206 214 230 227 241 10 30 296 13 18 13 8 11 12 0 159 240 301 318 205 171 171 178 184 194 184 181 184 193 198 212 203 200 205 200 197 195 191 189 187 168 171 173
204 204 208 210 223 83 76 60 37 13 13 7 2 4 5 357 357 24 347 256 301 325 13 194 182 174 156 178 188 194 212 200 200 198 200 197 193 193 190 185 176 171 176 164
236 188 212 216 236 259 66 51 16 5 359 356 2 355 357 352 345 338 340 331 334 344 337 274 231 170 180 176 189 206 205 194 193 203 196 190 191 189 188 184 174 175 175 166
308 311 324 232 25 1 41 21 358 355 341 16 358 343 339 338 333 326 314 317 315 314 315 312 265 211 192 184 197 205 191 188 200 200 195 193 190 185 186 182 181 183 183 174
334 24 12 349 346 343 354 332 355 352 8 8 354 356 346 339 310 295 302 298 299 299 301 295 282 233 200 186 196 197 196 192 196 199 196 193 188 184 180 171 151 48 180 174